TimeEST,TemperatureF,Dew PointF,Humidity,Sea Level PressureIn,VisibilityMPH,Wind Direction,Wind SpeedMPH,Gust SpeedMPH,PrecipitationIn,Events,Conditions,WindDirDegrees,DateUTC
12:15 AM,15.8,1.4,53,30.35,10.0,SW,8.1,-,N/A,,Overcast,220,2014-01-09 05:15:00
12:35 AM,15.8,1.4,53,30.36,10.0,SW,8.1,-,N/A,,Overcast,230,2014-01-09 05:35:00
12:55 AM,15.8,1.4,53,30.35,10.0,WSW,8.1,-,N/A,,Overcast,240,2014-01-09 05:55:00
1:15 AM,15.8,1.4,53,30.35,10.0,SW,9.2,-,N/A,,Overcast,220,2014-01-09 06:15:00
1:35 AM,15.8,1.4,53,30.36,10.0,SW,10.4,-,N/A,,Overcast,230,2014-01-09 06:35:00
1:55 AM,15.8,1.4,53,30.36,10.0,SW,9.2,-,N/A,,Overcast,230,2014-01-09 06:55:00
2:15 AM,15.8,1.4,53,30.37,10.0,WSW,5.8,-,N/A,,Overcast,250,2014-01-09 07:15:00
2:35 AM,15.8,1.4,53,30.38,10.0,WSW,11.5,-,N/A,,Mostly Cloudy,240,2014-01-09 07:35:00
2:55 AM,15.8,1.4,53,30.38,10.0,WSW,6.9,-,N/A,,Mostly Cloudy,240,2014-01-09 07:55:00
3:15 AM,15.8,1.4,53,30.38,10.0,WSW,9.2,-,N/A,,Mostly Cloudy,240,2014-01-09 08:15:00
3:35 AM,15.8,3.2,58,30.39,10.0,WSW,8.1,-,N/A,,Overcast,240,2014-01-09 08:35:00
3:55 AM,15.8,1.4,53,30.39,10.0,WSW,9.2,16.1,N/A,,Overcast,240,2014-01-09 08:55:00
4:15 AM,15.8,1.4,53,30.40,10.0,WSW,11.5,16.1,N/A,,Overcast,250,2014-01-09 09:15:00
4:35 AM,15.8,3.2,58,30.40,10.0,WSW,9.2,-,N/A,,Overcast,240,2014-01-09 09:35:00
4:55 AM,15.8,3.2,58,30.41,10.0,WSW,9.2,-,N/A,,Overcast,240,2014-01-09 09:55:00
5:15 AM,15.8,3.2,58,30.41,10.0,WSW,5.8,-,N/A,,Overcast,240,2014-01-09 10:15:00
5:35 AM,15.8,5.0,62,30.43,10.0,West,6.9,-,N/A,,Overcast,270,2014-01-09 10:35:00
5:55 AM,15.8,5.0,62,30.43,10.0,West,5.8,-,N/A,,Overcast,260,2014-01-09 10:55:00
6:15 AM,15.8,5.0,62,30.43,10.0,WSW,5.8,-,N/A,,Overcast,250,2014-01-09 11:15:00
6:35 AM,15.8,5.0,62,30.44,10.0,WSW,10.4,-,N/A,,Overcast,250,2014-01-09 11:35:00
6:55 AM,15.8,5.0,62,30.44,10.0,WSW,8.1,-,N/A,,Scattered Clouds,250,2014-01-09 11:55:00
7:15 AM,15.8,6.8,68,30.46,10.0,WSW,12.7,-,N/A,,Clear,250,2014-01-09 12:15:00
7:35 AM,15.8,6.8,68,30.47,10.0,West,11.5,-,N/A,,Clear,260,2014-01-09 12:35:00
7:55 AM,15.8,6.8,68,30.48,9.0,WSW,9.2,-,N/A,,Partly Cloudy,250,2014-01-09 12:55:00
8:15 AM,15.8,5.0,62,30.49,9.0,WSW,13.8,19.6,N/A,,Mostly Cloudy,250,2014-01-09 13:15:00
8:35 AM,15.8,3.2,58,30.50,10.0,WNW,6.9,16.1,N/A,,Scattered Clouds,290,2014-01-09 13:35:00
8:55 AM,15.8,5.0,62,30.51,10.0,West,8.1,-,N/A,,Scattered Clouds,270,2014-01-09 13:55:00
9:15 AM,17.6,5.0,58,30.52,10.0,WNW,8.1,16.1,N/A,,Scattered Clouds,300,2014-01-09 14:15:00
9:35 AM,17.6,5.0,58,30.53,10.0,West,11.5,20.7,N/A,,Scattered Clouds,270,2014-01-09 14:35:00
9:55 AM,17.6,5.0,58,30.54,10.0,West,12.7,19.6,N/A,,Clear,280,2014-01-09 14:55:00
10:15 AM,19.4,3.2,49,30.54,10.0,West,6.9,19.6,N/A,,Clear,280,2014-01-09 15:15:00
10:35 AM,19.4,6.8,58,30.55,10.0,WNW,10.4,16.1,N/A,,Partly Cloudy,290,2014-01-09 15:35:00
10:55 AM,19.4,3.2,49,30.55,10.0,WNW,11.5,20.7,N/A,,Clear,290,2014-01-09 15:55:00
11:15 AM,19.4,3.2,49,30.54,10.0,West,12.7,18.4,N/A,,Partly Cloudy,280,2014-01-09 16:15:00
11:35 AM,19.4,5.0,54,30.54,10.0,WNW,10.4,-,N/A,,Partly Cloudy,300,2014-01-09 16:35:00
11:55 AM,19.4,5.0,54,30.53,10.0,WNW,11.5,16.1,N/A,,Partly Cloudy,300,2014-01-09 16:55:00
12:15 PM,19.4,6.8,58,30.53,10.0,WSW,9.2,-,N/A,,Scattered Clouds,250,2014-01-09 17:15:00
12:35 PM,21.2,5.0,50,30.53,10.0,West,5.8,-,N/A,,Partly Cloudy,280,2014-01-09 17:35:00
12:55 PM,21.2,6.8,54,30.52,10.0,WNW,5.8,-,N/A,,Scattered Clouds,300,2014-01-09 17:55:00
1:15 PM,21.2,3.2,46,30.53,10.0,NW,9.2,-,N/A,,Clear,320,2014-01-09 18:15:00
1:35 PM,21.2,3.2,46,30.52,10.0,NW,8.1,-,N/A,,Clear,320,2014-01-09 18:35:00
1:55 PM,21.2,5.0,50,30.52,10.0,NW,5.8,-,N/A,,Clear,320,2014-01-09 18:55:00
2:15 PM,21.2,3.2,46,30.53,10.0,WNW,9.2,-,N/A,,Clear,300,2014-01-09 19:15:00
2:35 PM,23.0,5.0,46,30.53,10.0,West,8.1,-,N/A,,Clear,270,2014-01-09 19:35:00
2:55 PM,23.0,3.2,43,30.54,10.0,West,9.2,-,N/A,,Clear,270,2014-01-09 19:55:00
3:35 PM,23.0,6.8,50,30.54,10.0,WSW,5.8,-,N/A,,Clear,240,2014-01-09 20:35:00
3:55 PM,23.0,6.8,50,30.54,10.0,West,4.6,-,N/A,,Clear,260,2014-01-09 20:55:00
4:15 PM,21.2,3.2,46,30.55,10.0,SW,4.6,-,N/A,,Clear,230,2014-01-09 21:15:00
4:35 PM,21.2,5.0,50,30.54,10.0,SSW,3.5,-,N/A,,Clear,210,2014-01-09 21:35:00
4:55 PM,21.2,6.8,54,30.54,10.0,Calm,Calm,-,N/A,,Clear,0,2014-01-09 21:55:00
5:15 PM,17.6,8.6,68,30.55,10.0,SE,4.6,-,N/A,,Clear,130,2014-01-09 22:15:00
6:15 PM,15.8,6.8,68,30.55,10.0,SE,11.5,16.1,N/A,,Clear,130,2014-01-09 23:15:00
6:35 PM,15.8,6.8,68,30.56,10.0,SE,12.7,-,N/A,,Clear,130,2014-01-09 23:35:00
6:55 PM,15.8,6.8,68,30.56,10.0,ESE,11.5,-,N/A,,Clear,120,2014-01-09 23:55:00
7:15 PM,14.0,6.8,73,30.57,10.0,SE,12.7,-,N/A,,Clear,130,2014-01-10 00:15:00
7:35 PM,12.2,6.8,79,30.57,10.0,SE,9.2,-,N/A,,Clear,130,2014-01-10 00:35:00
7:55 PM,12.2,5.0,73,30.56,10.0,ESE,12.7,-,N/A,,Clear,120,2014-01-10 00:55:00
8:15 PM,12.2,5.0,73,30.56,10.0,ESE,9.2,-,N/A,,Clear,120,2014-01-10 01:15:00
8:35 PM,10.4,3.2,73,30.56,10.0,ESE,10.4,-,N/A,,Clear,120,2014-01-10 01:35:00
8:55 PM,10.4,5.0,79,30.55,10.0,ESE,10.4,-,N/A,,Clear,120,2014-01-10 01:55:00
9:15 PM,10.4,3.2,73,30.55,10.0,ESE,12.7,-,N/A,,Clear,120,2014-01-10 02:15:00
9:35 PM,10.4,3.2,73,30.55,10.0,ESE,12.7,-,N/A,,Clear,120,2014-01-10 02:35:00
9:55 PM,8.6,3.2,79,30.55,10.0,ESE,10.4,-,N/A,,Clear,120,2014-01-10 02:55:00
10:15 PM,8.6,1.4,73,30.54,10.0,SE,11.5,-,N/A,,Clear,140,2014-01-10 03:15:00
10:35 PM,8.6,3.2,79,30.54,10.0,SE,12.7,-,N/A,,Clear,130,2014-01-10 03:35:00
10:55 PM,10.4,6.8,85,30.52,10.0,ESE,12.7,-,N/A,,Clear,110,2014-01-10 03:55:00
11:15 PM,8.6,3.2,79,30.52,10.0,ESE,12.7,-,N/A,,Clear,120,2014-01-10 04:15:00
11:35 PM,8.6,3.2,79,30.51,10.0,SE,10.4,-,N/A,,Clear,130,2014-01-10 04:35:00
11:55 PM,8.6,3.2,79,30.51,10.0,SE,12.7,-,N/A,,Clear,130,2014-01-10 04:55:00